Regional Weather Roundup
Issued by NWS

Home | Current Version | Previous Version | Graphics & Text | Print | Product List | Glossary On
Versions: 1 2 3 4 5 6 7 8 9 10 11 12 13 14 15 16 17 18 19 20 21 22 23 24 25 26 27 28 29 30 31 32 33 34 35 36 37 38 39 40 41 42 43 44 45 46 47 48 49 50
000
ASUS43 KLSX 310707
RWRMO

WEATHER SUMMARY FOR MISSOURI
NATIONAL WEATHER SERVICE SPRINGFIELD MO
100 AM CST SAT JAN 31 2015

NOTE: "FAIR" INDICATES FEW OR NO CLOUDS BELOW 12,000 FEET WITH NO
       SIGNIFICANT WEATHER AND/OR OBSTRUCTIONS TO VISIBILITY.
       CURRENT SKY AND/OR WEATHER CONDITIONS ARE NOT AVAILABLE FOR
       CHILLICOTHE AND FARMINGTON.

MOZ001>031-035>038-043-044-053-054-310800-
...NORTHERN AND WESTERN MISSOURI...

CITY           SKY/WX    TMP DP  RH WIND       PRES   REMARKS
KANSAS CTY INT CLOUDY    32  23  69 S6        30.31F WCI  26
KANSAS C DTWN  CLOUDY    37  22  54 CALM      30.33F
LEE`S SUMMIT   CLOUDY    37  21  52 S8        30.32F
ST JOSEPH      CLOUDY    31  24  75 S6        30.32F WCI  25
CHILLICOTHE      N/A     30  20  66 S5        30.33F WCI  25
KIRKSVILLE     CLOUDY    29  20  69 S6        30.32F WCI  23

$$
MOZ066>068-077>081-088>096-101>105-310800-
...SOUTHWEST MISSOURI...

CITY           SKY/WX    TMP DP  RH WIND       PRES   REMARKS
SPRINGFIELD    CLOUDY    38  20  48 SE3       30.33F
JOPLIN         CLOUDY    39  28  64 CALM      30.34F

$$
MOZ032>034-039>042-045>050-055>058-069>072-310800-
...CENTRAL MISSOURI...

CITY           SKY/WX    TMP DP  RH WIND       PRES   REMARKS
COLUMBIA       CLOUDY    30  20  66 S7        30.34F WCI  23
JEFFERSON CITY CLOUDY    29  20  69 SE5       30.37F WCI  24
ROLLA          CLOUDY    33  18  53 SE6       30.33F WCI  28
SEDALIA        CLOUDY    31  23  72 S6        30.34F WCI  25
WHITEMAN AFB   CLOUDY    31  21  66 SE1       30.33F
WARRENSBURG    CLOUDY    32  21  64 CALM      30.34F
OSAGE BEACH    CLOUDY    34  18  51 CALM      30.35F

$$
MOZ051-052-059>065-310800-
...EAST CENTRAL MISSOURI...

CITY           SKY/WX    TMP DP  RH WIND       PRES   REMARKS
ST LOUIS INTL  CLOUDY    33  19  56 S5        30.38F WCI  29
SPIRIT OF STL  CLOUDY    25  20  81 CALM      30.37F
ST CHARLES     CLOUDY    25  22  88 NE3       30.38F

$$
MOZ072>076-082>087-097>100-106>115-310800-
...SOUTH CENTRAL AND SOUTHEAST MISSOURI...

CITY           SKY/WX    TMP DP  RH WIND       PRES   REMARKS
CAPE GIRARDEAU MOCLDY    29  24  82 CALM      30.41F
FARMINGTON     CLOUDY    30  19  64 S3        30.40F
POPLAR BLUFF   CLOUDY    29  25  85 CALM      30.40F
WEST PLAINS    CLOUDY    34  23  64 S6        30.37S WCI  29

$$


USA.gov is the U.S. government's official web portal to all federal, state and local government web resources and services.